User: anonymous   Login
Location: Caltech
(34.1382°N, 118.1253°W)
Time: 23:29:01
(UTC-08:00)
Language:

Cosmos 2333 Rocket - Orbit

View from above orbital plane
View from above orbital plane
View from above satellite
View from above satellite

Ground track
Ground track

The orbit data is extracted from the following two-line orbital elements,

1 24298U 96051B   15064.81554940 -.00000181  00000-0 -71518-4 0  9996
2 24298 070.8523 020.9198 0016597 334.2262 045.8075 14.12434913954011
Epoch (UTC): 05 March 2015 19:34:23
Eccentricity: 0.0016597
inclination: 70.8523°
perigee height: 839 km
apogee height: 863 km
right ascension of ascending node: 20.9198°
argument of perigee: 334.2262°
revolutions per day: 14.12434913
mean anomaly at epoch: 45.8075°
orbit number at epoch: 95401

The dashed part of the orbit path shows where the satellite is in the earth's shadow,  

DLR